Dewpoint
74 73 73 73 73 71 70 66 64 61 62 64 65 68 68 68 68 73 72 72 72 72 71 70 71 71 72 72 72 72 72 72 71 71 71 72 73 73
74 73 73 73 73 71 67 67 68 65 63 66 66 63 68 67 68 72 72 72 71 71 70 70 70 70 71 71 72 71 71 72 71 71 70 71 72 72
74 74 73 73 73 72 68 65 64 65 60 59 64 63 63 63 64 67 68 69 67 69 70 70 69 69 70 70 70 70 70 70 70 71 71 70 70 71
73 73 73 73 72 71 66 61 63 64 61 60 61 61 61 62 66 66 64 65 65 67 66 67 68 68 68 68 68 68 68 68 69 69 70 70 70 70
74 74 73 73 71 68 65 63 63 64 63 61 60 62 62 62 61 61 62 62 62 65 62 63 62 64 66 65 65 65 64 64 65 66 67 68 69 70
75 74 73 73 71 69 66 64 65 64 64 62 59 58 59 61 62 60 60 62 61 60 61 61 63 63 63 65 65 65 63 62 62 63 63 65 66 67
75 74 74 74 71 69 68 65 65 63 61 59 56 59 59 60 60 61 61 61 61 59 58 57 56 56 59 61 62 65 64 63 62 61 61 61 63 64
74 74 74 72 70 68 67 67 63 58 55 57 58 59 59 61 62 61 61 59 57 59 58 56 57 56 58 58 61 62 62 63 63 62 61 60 61 61
74 73 73 73 68 65 66 65 64 63 60 59 59 59 59 60 59 56 56 57 55 57 57 56 58 57 58 58 60 60 60 60 60 61 61 60 59 59
75 73 73 69 66 64 62 61 64 61 61 61 58 56 56 55 55 54 54 55 57 57 58 56 58 57 56 56 59 60 60 59 59 59 59 59 57 57
73 72 71 66 61 64 65 62 59 58 58 58 57 58 59 59 58 54 55 54 53 54 58 56 56 55 56 55 55 59 58 56 56 56 58 58 56 55
65 67 64 62 61 60 59 58 54 54 51 53 54 54 54 53 56 53 55 53 53 53 56 54 55 55 54 56 56 54 56 57 55 55 56 56 55 59
62 60 59 59 56 54 54 54 52 52 54 54 52 51 50 50 51 52 52 52 50 52 55 54 53 53 54 53 55 57 56 57 58 58 56 54 53 57
60 59 58 55 53 55 56 55 54 55 53 52 50 49 48 48 49 50 50 50 51 52 53 52 52 51 50 49 50 54 55 56 57 58 59 58 55 53
60 57 57 55 56 57 57 55 56 51 50 50 49 48 49 49 49 49 50 49 49 50 51 51 51 50 50 50 50 50 52 53 53 54 57 57 58 59
59 58 57 57 56 55 54 54 53 51 50 50 50 49 50 49 48 49 49 49 48 48 49 50 50 49 49 49 50 49 49 49 51 52 54 56 58 60
58 57 56 56 53 52 54 53 53 53 51 50 50 50 49 49 48 49 48 48 46 47 48 48 49 49 49 49 48 48 49 49 51 53 51 50 51 55
56 54 54 54 54 53 51 51 50 50 48 48 47 49 48 48 48 48 48 47 47 47 47 48 48 49 48 49 51 49 49 49 50 50 50 48 49 51
54 55 56 54 52 51 47 46 45 47 48 46 45 49 49 49 48 47 48 48 47 47 48 48 47 47 47 46 49 52 49 49 49 48 48 49 49 50
55 54 52 50 47 46 46 45 44 45 45 44 42 43 43 43 45 46 47 47 47 49 48 48 46 47 48 49 49 49 50 49 48 48 48 49 50 53
51 50 48 47 46 46 45 44 45 44 42 41 41 41 43 44 46 46 46 47 48 50 50 47 48 51 50 49 49 47 49 50 50 49 49 50 51 52
47 46 46 45 45 45 44 44 42 40 39 40 40 42 43 44 44 46 46 45 46 50 50 49 49 49 46 47 47 47 48 48 50 52 53 52 51 51
47 46 46 46 46 44 44 42 39 38 37 38 40 41 42 41 43 45 46 46 45 49 50 49 48 47 47 47 48 47 46 46 47 48 50 52 54 54
Lifted_Index
-8 -8 -7 -7 -7 -6 -6 -5 -5 -4 -3 -3 -3 -3 -2 -1 -1 -3 -4 -4 -4 -4 -4 -4 -3 -3 -2 -2 -3 -3 -2 -2 -2 -2 -2 -3 -4 -4
-7 -7 -7 -7 -7 -6 -5 -4 -4 -3 -3 -2 -2 -1 -1 -1 -1 -2 -3 -3 -3 -3 -3 -3 -3 -3 -2 -2 -2 -2 -2 -2 -2 -2 -2 -2 -3 -3
-7 -7 -7 -7 -6 -5 -4 -3 -2 -2 -1 -0 0 1 1 1 0 -0 -1 -1 -1 -1 -1 -1 -1 -1 -1 -1 -2 -2 -2 -2 -2 -2 -2 -2 -2 -2
-7 -7 -7 -7 -6 -5 -4 -2 -1 0 1 2 2 3 3 3 2 1 1 1 1 1 1 1 1 1 1 0 -1 -1 -1 -2 -2 -2 -2 -2 -2 -2
-8 -8 -8 -7 -6 -6 -4 -3 -1 1 1 2 3 4 4 3 3 3 3 3 2 2 2 3 3 3 3 2 1 0 -0 -1 -1 -2 -2 -2 -2 -2
-8 -8 -8 -8 -7 -6 -5 -3 -1 0 1 2 3 4 4 3 3 3 3 3 3 3 4 4 5 5 5 4 3 3 2 1 1 0 -1 -2 -2 -2
-9 -9 -8 -8 -7 -6 -5 -4 -1 1 2 3 3 3 3 3 3 3 3 3 3 4 4 5 6 5 5 4 4 4 4 3 3 2 1 -0 -2 -2
-9 -8 -8 -8 -7 -6 -5 -3 -0 1 2 3 3 3 3 4 4 4 4 5 5 5 6 6 6 6 5 4 5 5 5 4 4 3 2 1 -1 -1
-8 -8 -8 -7 -7 -6 -4 -2 -1 1 1 1 2 3 3 4 5 5 6 6 7 7 7 7 7 6 5 5 5 5 5 5 4 4 3 2 0 -1
-8 -8 -8 -7 -6 -5 -3 -2 -1 -0 0 1 1 3 4 5 6 7 8 8 8 8 8 7 7 6 6 5 5 5 5 5 5 5 4 2 1 0
-9 -8 -7 -7 -6 -4 -3 -2 -1 -0 0 1 1 3 5 7 7 8 8 8 8 8 8 8 8 8 7 6 6 6 6 5 5 5 5 3 2 2
-8 -7 -7 -6 -5 -4 -3 -2 -1 -0 0 1 2 4 6 8 8 9 9 9 9 9 9 9 9 8 7 7 6 6 6 6 6 6 5 4 3 3
-6 -5 -5 -4 -4 -3 -2 -1 -0 0 2 3 5 7 8 9 9 10 10 10 10 10 10 10 9 9 8 7 7 6 6 6 6 6 5 4 4 4
-4 -3 -2 -2 -3 -2 -1 0 2 3 5 7 8 9 10 10 11 11 11 11 11 11 11 10 9 9 8 8 7 7 7 6 6 6 6 5 4 4
-2 -1 -1 -1 -2 -1 1 3 5 6 8 9 9 10 11 11 11 11 11 11 12 12 11 10 9 8 8 7 7 7 6 6 6 6 6 5 5 4
-1 -0 -0 -1 -0 1 3 5 7 8 9 9 10 10 11 11 11 11 11 11 11 11 11 10 9 7 7 7 7 6 6 6 6 6 6 5 5 4
-0 -0 0 1 2 3 5 7 8 8 9 10 10 10 10 11 11 10 10 10 10 10 10 10 9 8 7 7 6 6 6 6 6 6 6 5 5 5
1 1 2 3 4 5 7 8 8 9 9 10 10 10 10 10 10 10 10 9 9 9 9 9 9 8 7 7 6 6 6 6 6 6 6 6 5 5
3 3 4 5 6 6 7 8 8 9 9 10 11 11 10 10 10 9 9 9 8 8 8 8 8 8 8 7 7 7 6 7 7 7 7 7 6 6
5 5 6 6 7 7 7 8 9 9 10 10 11 11 11 10 9 9 9 8 7 6 6 7 7 8 8 8 7 6 7 7 7 7 7 7 7 7
7 7 7 7 7 7 8 9 9 10 10 10 11 11 10 9 8 8 8 8 7 6 5 6 7 7 7 8 7 7 7 7 7 7 7 7 7 7
7 7 7 8 8 8 8 9 10 10 10 10 11 10 9 8 8 8 8 7 7 5 5 5 6 6 7 7 8 8 7 7 6 6 7 7 7 7
8 8 7 7 8 8 9 10 10 10 10 11 11 10 8 7 7 7 7 7 6 6 5 5 5 6 6 7 8 8 8 6 6 5 6 7 7 7